Date String (YYYY-MM-DD hh:mm:ss) UTC,Instrument flags,absolute air pressure of the measurement (hPa),sample flow rate (lpm),inlet stack bypass flow (lpm),air temperature of the measurement (°C),ambient temperature measured by the external sensor (°C),aerosol sample conditioner tube jacket temperature (°C),OPC LED temperature (°C),internal box temperature (°C),relative humidity of the measurement (%),span deviation,mass concentration of particles derived from Lorenz-Mie calculation of OPC scattering (μg/m³),mass concentration of particles derived from Lorenz-Mie calculation of OPC scattering (μg/m³),mass concentration of particles derived from Lorenz-Mie calculation of OPC scattering (μg/m³)
DateTimeUTC,F1_M11,P_M11,Q1_M11,Q2_M11,T1_M11,T2_M11,T3_M11,T4_M11,T5_M11,U1_M11,ZSPAN_M11,X2_M11,X0_M11,X1_M11
2023-06-26 10:00:00,SystemResetWarning,0831.3,5.00,000.00,030.0,028.4,000.0,038.5,031.5,27.6,0000.0,0005.62,0012.97,0004.69
2023-06-26 10:01:00,SystemResetWarning,0831.3,4.99,000.00,030.0,028.4,000.0,038.5,031.5,27.6,0000.0,0005.60,0012.87,0004.67
2023-06-26 10:02:00,SystemResetWarning,0831.3,4.99,000.00,030.0,028.4,000.0,038.6,031.5,27.3,0000.0,0005.54,0011.83,0004.66
2023-06-26 10:03:00,SystemResetWarning,0831.3,4.99,000.00,030.0,028.4,000.0,038.6,031.5,27.0,0000.0,0005.57,0011.98,0004.65
2023-06-26 10:04:00,SystemResetWarning,0831.3,5.01,000.00,030.1,028.5,000.0,038.6,031.5,26.8,0000.0,0005.59,0012.06,0004.65
2023-06-26 10:05:00,SystemResetWarning,0831.3,5.01,000.00,030.1,028.5,000.0,038.6,031.5,26.4,0000.0,0005.56,0011.92,0004.64
2023-06-26 10:06:00,SystemResetWarning,0831.3,5.00,000.00,030.1,028.5,000.0,038.6,031.6,26.4,0000.0,0005.56,0012.35,0004.64
2023-06-26 10:07:00,SystemResetWarning,0831.3,5.00,000.00,030.1,028.5,000.0,038.6,031.6,26.1,0000.0,0005.58,0012.41,0004.62
2023-06-26 10:08:00,SystemResetWarning,0831.3,5.00,000.00,030.1,028.5,000.0,038.6,031.6,26.0,0000.0,0005.58,0012.17,0004.60
2023-06-26 10:09:00,SystemResetWarning,0831.3,5.01,000.00,030.1,028.5,000.0,038.6,031.6,25.9,0000.3,0005.59,0011.93,0004.58
2023-06-26 10:10:00,SystemResetWarning,0831.3,5.00,000.00,030.1,028.5,000.0,038.6,031.6,25.9,0003.4,0005.53,0011.62,0004.55
2023-06-26 10:11:00,SystemResetWarning,0831.3,5.00,000.00,030.2,028.5,000.0,038.7,031.6,25.9,0003.1,0005.55,0011.72,0004.53
2023-06-26 10:12:00,SystemResetWarning,0831.3,4.99,000.00,030.2,028.6,000.0,038.7,031.6,26.0,0002.6,0005.54,0011.80,0004.53
2023-06-26 10:13:00,SystemResetWarning,0831.3,5.00,000.00,030.2,028.6,000.0,038.7,031.6,26.0,0002.5,0005.51,0012.05,0004.50
2023-06-26 10:14:00,SystemResetWarning,0831.3,5.00,000.00,030.2,028.6,000.0,038.7,031.7,26.4,0002.8,0005.46,0011.95,0004.48
2023-06-26 10:15:00,SystemResetWarning,0831.3,5.00,000.00,030.2,028.6,000.0,038.7,031.7,26.4,0003.0,0005.43,0011.93,0004.46
2023-06-26 10:16:00,SystemResetWarning,0831.3,5.00,000.00,030.2,028.6,000.0,038.7,031.7,26.2,0003.1,0005.43,0012.01,0004.43
2023-06-26 10:17:00,SystemResetWarning,0831.3,5.00,000.00,030.2,028.6,000.0,038.7,031.7,26.0,0003.0,0005.41,0012.30,0004.41
2023-06-26 10:18:00,SystemResetWarning,0831.3,5.01,000.00,030.2,028.6,000.0,038.7,031.7,25.8,0002.8,0005.35,0011.97,0004.39
2023-06-26 10:19:00,SystemResetWarning,0831.3,5.00,000.00,030.2,028.6,000.0,038.8,031.7,25.8,0002.8,0005.30,0012.42,0004.37
2023-06-26 10:20:00,SystemResetWarning,0831.3,5.00,000.00,030.2,028.6,000.0,038.8,031.8,25.6,0001.9,0005.30,0013.15,0004.37
2023-06-26 10:21:00,SystemResetWarning,0831.3,5.00,000.00,030.2,028.7,000.0,038.8,031.7,25.5,0000.0,0005.34,0013.33,0004.37
2023-06-26 10:22:00,SystemResetWarning,0831.3,5.00,000.00,030.3,028.7,000.0,038.8,031.7,25.5,0000.0,0005.32,0013.23,0004.36
2023-06-26 10:23:00,SystemResetWarning,0831.3,5.00,000.00,030.3,028.7,000.0,038.8,031.7,25.4,0000.0,0005.30,0013.15,0004.36
2023-06-26 10:24:00,SystemResetWarning,0831.3,4.99,000.00,030.3,028.7,000.0,038.8,031.7,25.3,0000.0,0005.35,0013.05,0004.36
2023-06-26 10:25:00,SystemResetWarning,0831.3,4.99,000.00,030.3,028.7,000.0,038.8,031.8,25.4,0000.0,0005.33,0012.61,0004.36
2023-06-26 10:26:00,SystemResetWarning,0831.3,5.00,000.00,030.3,028.7,000.0,038.8,031.7,25.4,0000.0,0005.27,0012.58,0004.35
2023-06-26 10:27:00,SystemResetWarning,0831.3,5.00,000.00,030.3,028.7,000.0,038.8,031.8,25.3,0000.0,0005.23,0012.16,0004.34
2023-06-26 10:28:00,SystemResetWarning,0831.3,5.00,000.00,030.3,028.7,000.0,038.8,031.7,25.3,0000.0,0005.18,0011.16,0004.33
2023-06-26 10:29:00,SystemResetWarning,0831.3,5.00,000.00,030.3,028.7,000.0,038.9,031.7,25.4,0000.0,0005.15,0011.06,0004.31
2023-06-26 10:30:00,SystemResetWarning,0831.3,5.00,000.00,030.3,028.7,000.0,038.9,031.8,25.5,0000.0,0005.11,0010.71,0004.30
2023-06-26 10:31:00,SystemResetWarning,0831.3,5.00,000.00,030.4,028.7,000.0,038.9,031.8,25.5,0000.0,0005.05,0009.95,0004.28
2023-06-26 10:32:00,SystemResetWarning,0831.3,5.00,000.00,030.4,028.7,000.0,038.9,031.8,25.5,0000.0,0005.02,0009.75,0004.28
2023-06-26 10:33:00,SystemResetWarning,0831.3,5.00,000.00,030.4,028.7,000.0,038.9,031.8,25.4,0000.0,0005.00,0009.80,0004.27
2023-06-26 10:34:00,SystemResetWarning,0831.3,5.00,000.00,030.4,028.7,000.0,038.9,031.8,25.3,0000.0,0005.00,0009.96,0004.26
2023-06-26 10:35:00,SystemResetWarning,0831.3,5.00,000.00,030.4,028.7,000.0,038.9,031.8,25.2,0000.0,0004.97,0010.34,0004.26
2023-06-26 10:36:00,SystemResetWarning,0831.3,5.00,000.00,030.4,028.7,000.0,038.9,031.8,25.2,0000.0,0004.98,0010.35,0004.26
2023-06-26 10:37:00,SystemResetWarning,0831.3,5.00,000.00,030.4,028.8,000.0,038.9,031.8,25.4,0000.0,0005.02,0010.04,0004.26
2023-06-26 10:38:00,SystemResetWarning,0831.3,5.00,000.00,030.4,028.8,000.0,038.9,031.8,25.5,0000.0,0005.04,0010.05,0004.26
2023-06-26 10:39:00,SystemResetWarning,0831.3,5.00,000.00,030.4,028.8,000.0,038.9,031.9,25.5,0000.0,0005.02,0010.22,0004.27
2023-06-26 10:40:00,SystemResetWarning,0831.3,5.00,000.00,030.4,028.8,000.0,039.0,031.9,25.2,0000.0,0005.04,0010.78,0004.27
2023-06-26 10:41:00,SystemResetWarning,0831.3,5.00,000.00,030.4,028.8,000.0,039.0,031.9,25.2,0000.0,0005.09,0011.54,0004.27
2023-06-26 10:42:00,SystemResetWarning,0831.3,5.00,000.00,030.4,028.8,000.0,039.0,031.9,25.3,0000.0,0005.13,0011.89,0004.28
2023-06-26 10:43:00,SystemResetWarning,0831.3,5.00,000.00,030.4,028.8,000.0,039.0,031.9,25.7,0000.0,0005.13,0012.39,0004.28
2023-06-26 10:44:00,SystemResetWarning,0831.3,5.00,000.00,030.5,028.8,000.0,039.0,031.9,26.3,0000.0,0005.14,0013.43,0004.29
2023-06-26 10:45:00,SystemResetWarning,0831.2,5.00,000.00,030.5,028.2,000.0,039.0,032.0,26.9,0000.0,0005.11,0014.45,0004.29
2023-06-26 10:46:00,SystemResetWarning,0831.2,4.99,000.00,030.5,025.7,000.0,038.9,031.9,26.9,0000.0,0005.14,0014.00,0004.31
2023-06-26 10:47:00,SystemResetWarning,0831.2,5.02,000.00,030.4,024.7,000.0,038.8,031.8,26.8,0000.0,0005.17,0014.04,0004.33
2023-06-26 10:48:00,SystemResetWarning,0831.2,5.01,000.00,030.2,024.8,000.0,038.8,031.3,27.4,0000.0,0005.16,0014.00,0004.34
2023-06-26 10:49:00,SystemResetWarning,0831.2,5.00,000.00,030.1,025.2,000.0,038.8,031.2,27.6,0000.0,0005.16,0013.96,0004.36
2023-06-26 10:50:00,SystemResetWarning,0831.2,5.00,000.00,030.0,025.7,000.0,038.7,031.2,27.8,0000.0,0005.20,0013.97,0004.39
2023-06-26 10:51:00,SystemResetWarning,0831.2,5.00,000.00,030.0,026.2,000.0,038.7,031.2,27.9,0000.0,0005.25,0013.75,0004.42
2023-06-26 10:52:00,SystemResetWarning,0831.3,4.99,000.00,030.0,026.6,000.0,038.7,031.2,28.0,0000.0,0005.28,0013.06,0004.46
2023-06-26 10:53:00,SystemResetWarning,0831.3,5.00,000.00,030.0,027.0,000.0,038.7,031.2,27.8,0000.0,0005.32,0013.25,0004.49
2023-06-26 10:54:00,SystemResetWarning,0831.3,5.01,000.00,029.9,027.2,000.0,038.6,031.2,27.7,0000.0,0005.36,0012.90,0004.52
2023-06-26 10:55:00,SystemResetWarning,0831.3,5.00,000.00,029.9,027.5,000.0,038.6,031.2,27.7,0000.0,0005.45,0012.50,0004.56
2023-06-26 10:56:00,SystemResetWarning,0831.3,4.99,000.00,029.9,027.6,000.0,038.6,031.3,27.8,0000.0,0005.52,0011.32,0004.58
2023-06-26 10:57:00,SystemResetWarning,0831.3,4.99,000.00,029.9,027.8,000.0,038.6,031.3,27.8,0000.7,0005.55,0011.28,0004.60
2023-06-26 10:58:00,SystemResetWarning,0831.3,5.02,000.00,029.9,027.9,000.0,038.6,031.3,27.7,0003.7,0005.60,0011.92,0004.62
2023-06-26 10:59:00,SystemResetWarning,0831.3,5.01,000.00,029.9,028.0,000.0,038.6,031.4,27.9,0001.9,0005.66,0012.52,0004.64
